Lapse_Rate
4.6 5.2 5.4 4.8 5.8 5.5 5.8 5.6 5.3 4.9 4.6 4.5 4.3 4.2 4.1 3.4 2.4 2.4 3.9 4.8 4.8 6.1 5.1 4.1 5.0 5.0 5.0 5.2 4.8 3.6 6.5 6.5 6.5 6.5 6.5 6.2 6.5 5.4 4.9 5.2 5.0 3.2 3.3 3.1 2.4
4.1 4.0 4.1 4.3 5.0 5.2 6.1 5.9 5.8 5.4 5.2 5.1 4.9 4.3 4.2 3.6 1.4 2.6 4.5 5.8 6.2 6.0 4.3 4.3 5.5 5.3 4.3 5.4 4.7 6.2 6.5 6.5 6.5 6.5 6.5 6.4 6.4 6.1 6.1 6.1 5.7 4.2 2.6 1.4 1.6
4.3 4.3 4.3 4.4 4.5 4.9 5.3 5.4 5.9 5.9 6.5 5.8 5.5 4.6 4.2 3.2 3.9 5.5 5.9 6.5 6.6 5.1 4.2 4.3 4.7 5.6 6.1 5.7 5.5 6.0 6.5 6.5 6.4 5.6 5.9 6.4 6.4 5.0 6.2 6.5 4.6 3.8 1.8 1.5 2.2
4.7 4.3 4.0 3.9 4.0 4.5 4.4 5.5 5.2 6.0 6.5 5.9 5.7 4.9 4.3 3.7 6.5 5.9 6.6 7.1 7.0 4.7 5.3 5.5 5.8 5.9 6.5 6.5 5.8 6.5 6.1 6.2 6.1 6.0 6.2 6.5 5.9 6.3 4.7 5.0 3.9 2.0 1.4 1.1 2.1
5.1 4.9 4.4 4.2 4.0 3.5 3.9 4.4 4.9 5.4 5.6 5.6 5.4 5.0 4.7 4.9 4.6 6.1 6.8 6.1 5.8 5.7 5.7 6.1 5.9 5.9 6.5 6.5 6.3 6.5 6.5 6.0 5.5 4.9 5.4 5.5 6.1 6.1 5.1 3.2 2.8 2.3 1.6 1.8 2.2
5.0 4.9 4.4 4.1 4.0 3.9 3.6 3.7 4.8 5.7 5.6 5.5 5.5 5.4 6.4 6.4 6.1 6.2 5.9 5.8 5.6 5.7 5.3 5.7 5.9 5.9 6.1 6.4 6.5 6.2 6.2 5.9 5.0 5.1 5.7 6.4 6.3 5.5 4.9 3.1 2.9 2.5 1.8 2.5 2.6
5.0 4.6 4.3 4.2 4.2 3.8 3.5 3.6 4.0 4.9 5.4 5.8 5.6 5.7 5.8 5.0 5.5 5.3 5.8 5.7 5.7 6.2 6.1 5.8 5.9 6.2 6.0 6.5 5.9 6.1 6.5 6.5 6.4 6.4 6.5 6.1 6.5 6.5 5.3 4.1 3.7 3.6 3.4 3.5 3.3
5.4 5.0 4.4 4.2 4.0 4.5 4.2 3.6 3.8 3.9 4.7 5.9 6.3 6.7 5.1 5.4 5.0 5.4 5.6 5.5 5.7 6.3 6.5 5.8 6.2 6.3 6.2 5.9 6.0 6.5 6.5 6.5 6.5 6.5 6.4 6.4 6.5 6.5 5.4 4.7 4.4 3.8 3.9 3.8 3.2
5.7 5.4 5.0 4.2 3.7 3.9 4.4 4.9 4.8 4.2 5.3 6.5 6.3 6.1 5.0 5.9 5.5 5.2 5.6 6.0 5.8 6.2 6.4 6.5 5.7 5.3 6.1 6.5 6.5 6.5 6.5 6.5 6.5 6.5 6.5 6.5 6.5 6.5 4.9 4.6 5.0 4.1 3.5 3.8 3.1
5.9 5.4 5.0 4.6 3.9 4.1 4.4 4.6 5.4 6.1 5.7 6.7 7.4 6.1 5.4 6.4 6.1 5.7 5.5 6.6 6.4 6.3 6.3 5.7 3.8 6.5 6.5 6.5 6.5 6.5 6.5 6.5 6.5 6.5 6.5 6.5 6.5 6.5 5.4 5.0 4.6 3.8 3.4 1.8 -0.1
5.1 5.3 4.9 4.6 4.5 4.5 4.0 3.0 4.9 5.4 5.8 5.2 5.7 5.8 6.2 6.7 7.0 6.4 6.6 6.2 6.1 5.8 6.5 6.2 6.5 6.5 6.5 6.5 6.5 6.5 6.5 6.5 6.5 6.5 6.5 6.5 6.5 6.5 6.2 5.5 5.6 4.1 3.6 0.1 -0.6
5.6 5.4 4.9 4.4 4.3 4.5 3.5 4.1 3.2 3.8 5.6 4.8 5.1 5.8 6.5 7.0 6.5 6.3 6.6 6.2 6.3 6.5 6.5 6.5 6.5 6.5 6.5 6.5 6.5 6.5 6.5 6.5 6.5 6.5 6.5 6.5 6.5 6.5 6.5 6.5 5.1 4.0 3.8 0.8 0.3
6.0 5.6 5.1 4.4 4.2 3.2 3.0 3.5 1.9 3.1 6.0 5.8 6.4 6.4 6.5 6.6 6.3 6.1 6.1 5.9 6.5 6.5 6.5 6.5 6.5 6.5 6.5 6.5 6.5 6.5 6.5 6.5 6.5 6.5 6.5 6.5 6.5 6.5 6.5 6.4 6.3 5.4 3.7 1.3 0.3
6.3 5.9 5.3 4.1 5.2 3.3 3.7 1.9 1.8 3.1 6.5 6.5 6.4 6.4 6.2 6.0 6.4 6.0 6.3 6.4 6.5 6.5 6.5 6.5 6.5 6.5 6.5 6.5 6.5 6.5 6.5 6.5 6.5 6.5 6.5 6.5 6.5 6.5 6.5 6.5 6.5 6.1 4.5 2.3 0.8
6.5 6.3 5.7 4.5 2.8 4.2 3.4 1.3 2.1 4.2 6.5 6.5 6.4 6.2 5.7 6.3 6.1 6.3 6.3 6.3 6.5 6.5 6.5 6.5 6.5 6.5 6.5 6.5 6.5 6.5 6.5 6.5 6.5 6.5 6.5 6.5 6.5 6.5 6.5 6.5 6.5 6.5 4.7 2.2 0.4
6.6 6.4 6.0 3.7 2.6 4.0 1.9 1.5 3.2 6.5 6.5 6.5 6.4 6.5 6.5 6.3 6.4 6.5 6.4 6.5 6.4 6.5 6.5 6.5 6.2 6.5 6.5 6.5 6.5 6.5 6.5 6.5 6.5 6.5 6.5 6.5 6.5 6.5 6.5 6.5 6.5 6.4 4.0 2.8 1.1
6.6 6.5 6.2 3.8 4.7 3.0 1.8 3.7 6.5 6.5 6.5 6.5 6.5 6.5 6.5 6.5 6.5 6.5 6.5 6.5 6.5 6.5 6.5 6.5 6.5 6.5 6.5 6.5 6.5 6.5 6.5 6.5 6.5 6.5 6.5 6.5 6.5 6.5 6.5 6.5 6.5 6.5 3.2 1.2 -0.0
6.6 6.2 5.4 3.9 3.8 3.2 3.6 6.4 6.5 6.5 6.5 6.5 6.5 6.5 6.5 6.5 6.5 6.5 6.5 6.5 6.5 6.5 6.5 6.5 6.5 6.5 6.5 6.5 6.5 6.5 6.5 6.5 6.5 6.5 6.5 6.5 6.5 6.5 6.5 6.1 2.6 1.3 -0.1 1.2 1.8
7.1 4.3 4.9 2.8 3.4 3.5 5.5 6.5 6.5 6.5 6.5 6.5 6.5 6.5 6.5 6.5 6.5 6.5 6.5 6.5 6.5 6.5 6.5 6.5 6.5 6.5 6.5 6.5 6.5 6.5 6.5 6.5 6.5 6.5 6.5 6.5 6.5 6.5 6.5 6.5 6.5 3.8 0.6 1.2 2.1
6.7 4.5 4.1 3.6 3.4 4.2 6.4 6.5 6.5 6.5 6.5 6.5 6.5 6.5 6.5 6.5 6.5 6.5 6.5 6.5 6.5 6.5 6.6 6.5 6.5 6.5 6.5 6.5 6.5 6.5 6.5 6.5 6.5 6.5 6.5 6.5 6.5 6.5 6.5 6.5 6.5 6.5 3.6 1.7 2.2
6.4 5.7 4.3 4.2 4.1 6.3 6.5 6.5 6.5 6.5 6.4 6.5 6.5 6.5 6.5 6.5 6.5 6.5 6.5 6.5 6.5 6.5 6.5 6.5 6.5 6.5 6.5 6.5 6.5 6.5 6.5 6.5 6.5 6.5 6.5 6.5 6.5 6.5 6.5 6.5 6.5 6.4 1.5 1.3 1.8
6.5 6.5 3.9 3.9 6.4 6.2 6.5 6.5 6.6 6.5 6.3 6.5 6.5 6.5 6.5 6.5 6.5 6.5 6.5 6.5 6.7 6.6 6.5 6.5 6.5 6.5 6.5 6.5 6.5 6.5 6.5 6.5 6.5 6.5 6.5 6.5 6.5 6.5 6.5 6.5 4.1 3.3 1.0 0.8 1.5
6.9 5.5 4.4 4.7 6.5 6.5 6.5 6.5 6.5 6.5 6.5 6.5 6.5 6.5 6.5 6.5 6.5 6.5 6.5 6.7 6.7 6.5 6.5 6.5 6.5 6.5 6.5 6.5 6.5 6.5 6.5 6.5 6.5 6.5 6.5 6.5 6.5 6.5 6.5 6.5 2.4 0.8 1.5 1.1 2.0
6.5 6.5 5.6 5.2 4.7 6.5 6.5 6.5 6.5 6.3 6.5 6.5 6.5 6.6 6.5 6.5 6.5 6.5 6.5 6.5 6.7 6.7 6.9 6.7 6.5 6.5 6.5 6.5 6.5 6.5 6.5 6.5 6.5 6.5 6.5 6.5 6.5 6.5 6.5 6.5 5.7 2.3 0.5 1.4 3.1
6.7 6.2 4.9 6.5 6.5 6.5 6.5 6.5 6.5 6.5 6.5 6.6 6.5 6.5 6.5 6.5 6.5 6.5 6.5 6.5 6.6 6.8 6.7 6.5 6.5 6.5 6.5 6.5 6.5 6.5 6.5 6.5 6.5 6.5 6.5 6.5 6.5 6.5 6.5 6.5 3.2 0.3 1.4 2.5 3.9
6.6 6.2 3.8 3.7 5.9 6.5 6.5 6.5 6.5 6.5 6.5 6.5 6.5 6.5 6.5 6.5 6.5 6.5 6.5 6.5 6.5 6.5 6.5 6.5 6.5 6.5 6.5 6.5 6.5 6.5 6.5 6.5 6.5 6.5 6.5 6.5 6.5 6.5 5.1 3.2 2.2 0.5 2.3 3.2 4.1
6.5 6.8 6.3 5.8 6.5 6.5 6.5 6.5 6.5 6.5 6.5 6.5 6.5 6.5 6.5 6.5 6.6 6.4 6.4 6.4 6.5 6.5 6.5 6.5 6.5 6.5 6.5 6.5 6.5 6.5 6.5 6.5 6.5 6.5 6.5 6.5 6.5 6.5 6.5 6.5 4.2 2.7 2.6 3.0 3.8
Wind_Speed
18 21 22 22 18 14 13 12 12 12 12 14 16 17 19 22 16 1 2 2 0 6 5 3 3 2 3 2 3 3 2 3 4 4 3 2 1 1 0 3 1 2 2 3 8
18 18 20 22 23 20 14 13 12 11 11 12 15 17 19 20 3 3 2 0 3 4 4 5 2 2 2 2 1 4 3 7 4 2 2 2 1 2 1 2 3 2 1 4 7
19 19 20 21 21 20 21 17 14 11 9 9 12 16 19 11 4 1 1 2 2 5 3 1 1 1 1 2 4 4 5 4 4 5 3 2 2 5 4 6 6 7 6 7 5
21 20 20 21 22 22 19 18 17 16 10 8 7 12 17 2 3 1 1 3 2 4 2 1 1 1 2 3 3 2 6 4 3 2 1 3 2 3 8 7 4 8 10 8 9
23 23 22 23 24 21 21 20 18 16 13 10 4 6 4 4 6 1 2 3 2 2 1 1 1 2 2 2 2 4 3 2 4 6 5 2 7 7 8 8 3 5 10 9 7
22 24 25 24 25 25 21 18 18 16 12 8 1 2 3 4 1 2 1 2 2 2 2 3 2 2 2 2 2 1 4 6 7 7 4 5 5 6 6 3 6 8 9 8 8
21 22 25 24 27 25 23 20 15 14 13 9 5 3 2 11 1 2 2 1 1 2 2 2 2 2 1 3 3 3 6 6 5 2 4 2 6 8 4 4 7 7 6 7 6
23 23 24 24 26 26 24 20 17 11 10 9 5 2 5 3 3 3 1 2 3 3 3 4 2 2 1 3 4 3 2 4 2 1 1 2 7 4 1 6 8 8 7 6 5
23 24 25 23 23 28 27 24 17 9 7 9 2 4 7 3 2 2 2 2 1 2 2 3 4 2 3 3 3 3 3 3 7 1 1 3 7 4 2 5 7 7 7 6 6
23 25 25 25 23 25 28 25 5 2 5 3 2 2 4 2 2 2 1 2 3 3 2 4 4 3 3 3 3 3 4 4 5 2 1 5 14 14 5 6 9 7 6 4 1
20 23 25 26 25 22 13 4 4 2 1 5 3 3 4 1 2 2 3 3 3 4 2 1 2 6 8 6 1 2 3 6 5 5 4 9 9 17 5 6 7 8 6 0 4
19 22 24 26 26 16 3 3 3 2 6 4 5 5 4 1 0 2 2 3 2 3 1 3 6 7 3 3 4 3 3 7 6 2 2 8 14 13 4 2 4 6 6 1 5
16 18 22 27 25 3 2 1 4 4 2 5 3 3 2 2 1 2 3 3 4 3 5 6 3 2 4 4 3 3 4 4 5 6 4 6 7 4 2 1 4 5 4 1 3
14 15 17 25 2 3 1 3 4 2 4 5 3 3 1 3 2 2 1 2 2 3 2 5 3 2 2 3 5 3 2 1 3 5 3 4 5 4 3 3 3 4 5 5 7
16 12 12 5 4 3 3 6 4 1 4 3 2 1 1 2 1 2 1 2 3 2 3 5 1 2 3 4 5 4 2 1 1 2 4 2 3 6 1 4 4 1 6 7 7
20 10 9 2 1 1 5 4 1 4 6 3 3 3 2 1 1 2 1 2 1 1 1 6 3 2 3 2 1 2 2 4 3 2 2 4 4 4 3 4 2 3 7 9 11
20 12 4 3 3 2 2 1 2 4 2 4 3 4 2 2 1 3 2 3 2 5 4 5 2 0 1 2 1 2 4 4 5 2 5 2 2 7 3 2 4 3 8 10 9
19 8 3 5 1 3 1 2 6 5 4 1 3 1 2 2 1 2 2 1 3 2 2 2 5 2 0 1 2 1 4 4 4 2 4 2 5 4 2 6 3 3 6 10 9
17 2 2 3 9 3 2 5 7 6 1 4 3 2 1 2 3 3 1 1 3 2 3 1 4 1 2 1 2 2 1 3 2 2 2 3 5 2 2 1 1 7 8 11 12
4 3 3 9 10 3 2 6 4 3 1 1 4 2 2 1 1 2 2 1 3 2 1 2 4 0 1 1 3 2 3 3 2 2 4 4 4 3 1 2 7 8 10 11 11
2 3 1 5 3 2 3 4 4 3 2 3 3 3 3 2 1 2 2 3 3 3 1 2 2 4 1 4 4 2 1 1 1 3 3 3 4 3 5 5 6 8 8 9 11
2 3 2 3 2 2 3 2 2 3 3 2 1 2 2 2 1 1 2 2 2 2 3 3 3 4 7 1 1 1 2 5 3 3 1 1 5 2 4 4 3 8 9 9 8
2 3 2 1 3 3 3 3 2 3 3 3 2 2 1 3 1 1 2 3 4 2 3 3 1 4 5 4 3 3 3 4 4 2 5 3 5 2 2 4 2 5 8 9 10
2 2 0 2 1 5 4 4 3 3 2 3 2 3 2 2 2 1 1 3 5 2 5 5 2 4 3 2 2 2 2 4 4 2 2 6 7 1 5 4 6 7 7 9 9
3 3 4 3 4 3 5 6 6 3 0 1 1 2 3 3 0 3 1 1 4 1 1 3 3 3 8 11 11 11 7 9 9 7 6 4 5 5 4 2 5 6 8 9 11
2 3 2 2 6 6 6 3 7 3 4 3 2 5 3 3 3 3 1 2 2 3 2 1 3 2 5 7 6 9 11 13 14 13 8 4 19 5 3 3 5 5 7 8 11
2 1 4 3 2 4 4 5 7 7 2 2 5 4 2 1 2 1 1 2 2 1 3 3 2 2 4 3 7 5 6 11 4 4 6 6 4 3 2 2 3 6 5 7 10
Wind_Direction
346 340 338 342 305 278 282 292 303 313 323 332 338 339 336 333 329 355 218 166 197 343 1 336 66 34 66 91 97 129 72 234 247 183 258 355 301 30 128 115 44 353 153 304 134
348 345 336 335 342 320 280 285 290 298 312 328 333 336 333 335 338 341 254 217 2 22 54 46 44 23 57 135 87 110 155 220 219 222 245 278 188 211 182 179 216 275 26 96 125
350 346 340 332 334 332 342 310 282 279 290 313 327 333 329 339 345 340 196 356 11 87 92 86 76 100 192 142 193 173 211 211 255 227 212 227 253 183 177 260 209 206 179 154 150
351 346 343 335 330 328 329 324 327 294 278 287 312 333 327 346 318 288 216 345 16 121 95 112 92 116 228 225 173 226 240 230 283 327 211 226 169 219 197 226 190 214 172 161 174
350 344 342 337 329 327 320 320 323 328 289 281 316 353 19 0 257 240 33 349 76 104 74 125 132 149 232 262 300 220 279 298 281 306 256 293 240 231 242 234 183 144 156 176 173
348 345 343 340 330 323 313 311 310 318 331 303 106 53 115 282 179 146 44 80 67 79 60 43 150 165 240 244 209 301 277 271 272 254 247 230 257 151 259 176 160 163 175 178 181
344 343 342 342 334 333 326 311 301 305 318 303 134 118 117 244 22 314 5 120 111 119 127 123 127 85 181 295 337 315 314 323 240 249 243 177 283 230 236 152 180 183 176 183 187
339 338 341 340 335 330 326 315 302 297 300 297 144 108 237 257 303 286 147 80 67 81 106 134 112 124 175 315 358 332 47 341 282 355 340 140 274 275 297 176 209 199 194 186 175
338 335 335 336 335 331 327 319 298 277 272 146 95 116 266 318 241 242 147 157 91 71 82 86 69 105 47 86 358 4 258 240 310 80 119 178 272 255 162 185 225 208 199 188 159
333 333 331 333 335 333 324 317 273 233 72 107 65 41 264 216 161 105 54 87 92 89 47 54 51 80 49 98 229 223 254 259 247 294 267 258 262 270 229 202 227 214 190 143 226
330 329 330 330 331 333 336 345 2 334 255 189 208 252 274 103 130 97 103 78 53 51 232 2 89 216 214 202 163 264 226 255 256 262 274 247 271 274 257 228 237 223 169 232 294
327 326 327 329 327 330 25 29 59 263 309 254 249 274 269 278 193 107 101 92 109 244 140 357 245 231 187 177 198 216 271 271 281 266 220 283 279 278 262 270 259 188 143 17 327
317 320 327 328 322 32 72 50 335 336 282 295 219 199 198 148 189 150 123 122 190 221 206 201 263 76 167 176 181 209 211 243 256 330 258 299 290 337 358 81 83 93 117 75 307
301 314 328 332 303 328 28 349 339 296 43 262 222 216 151 147 73 75 76 156 219 236 252 227 273 266 165 219 151 268 180 273 308 2 261 22 286 310 258 304 209 159 32 347 333
295 303 323 353 286 307 346 342 303 190 360 172 200 173 108 127 139 355 10 88 221 238 90 260 245 224 239 232 170 222 78 333 261 228 7 329 76 272 4 282 242 112 352 336 319
299 286 324 8 296 297 354 315 114 42 255 221 158 175 116 66 113 126 130 65 96 306 256 252 297 256 199 65 27 102 86 48 55 81 5 244 133 274 221 209 76 9 336 329 309
293 274 298 141 248 355 348 240 270 205 335 196 191 162 166 168 133 162 84 21 110 36 354 321 238 75 148 133 25 81 61 326 349 6 225 262 176 254 252 182 163 264 306 306 296
290 285 238 205 217 21 96 149 217 243 221 33 66 95 53 50 95 341 130 75 60 103 87 49 316 176 312 195 163 127 137 163 248 275 283 208 239 261 130 100 139 242 282 282 316
297 223 207 236 168 115 182 199 216 219 218 134 65 103 218 194 134 58 53 125 74 60 155 127 270 120 39 80 102 182 131 188 76 211 23 237 276 314 136 81 329 335 330 325 324
278 258 235 160 154 112 200 225 238 259 305 108 154 150 172 316 35 84 4 319 107 72 121 222 304 341 90 90 37 158 156 64 21 324 293 278 275 245 276 330 329 334 324 317 319
214 250 199 153 125 138 222 226 267 272 186 75 174 166 216 94 36 300 158 124 158 161 77 127 121 287 16 202 180 123 326 103 112 161 199 300 269 216 176 213 277 308 298 298 312
220 230 203 155 166 145 175 202 210 255 67 105 146 88 108 131 156 299 334 75 113 109 151 187 150 262 228 34 340 274 221 159 155 247 160 198 274 19 171 210 194 294 302 306 306
248 217 229 177 184 199 115 212 248 239 199 180 124 86 107 145 147 246 29 136 124 170 160 176 255 331 337 10 25 239 195 124 94 101 214 166 262 153 94 9 316 294 312 317 314
292 223 250 67 305 148 137 212 200 37 61 78 105 92 121 160 183 196 237 160 175 213 200 177 178 210 238 209 147 287 210 157 150 168 181 233 284 60 350 356 334 316 308 315 321
285 236 192 195 219 176 165 171 150 150 46 118 119 199 160 143 121 217 104 1 168 46 31 125 230 210 259 262 252 246 210 179 201 213 200 253 233 281 298 255 278 284 311 336 336
224 254 341 202 151 145 184 233 180 146 157 193 149 161 135 150 165 223 100 193 246 6 186 316 269 279 277 242 243 258 239 221 215 238 257 276 287 193 136 200 321 311 336 330 338
227 213 340 187 110 115 198 180 164 130 335 161 149 125 167 117 71 91 229 241 235 201 208 193 242 319 268 341 304 278 226 207 202 202 189 211 239 191 125 95 294 319 331 324 329